User: anonymous   Login
Location: Unspecified
(0.0000°N, 0.0000°E)
Time: 03:59:35
(UTC+02:00)
Language:

Cosmos 1898 Rocket - Orbit

View from above orbital plane
View from above orbital plane
View from above satellite
View from above satellite

Ground track
Ground track

The orbit data is extracted from the following two-line orbital elements,

1 18586U 87098B   17289.86542351 -.00000022  00000-0  16364-5 0  9991
2 18586  74.0066  71.2729 0019966  99.3936 260.9476 14.36795802564836
Epoch (UTC): 16 October 2017 20:46:12
Eccentricity: 0.0019966
inclination: 74.0066°
perigee height: 755 km
apogee height: 783 km
right ascension of ascending node: 71.2729°
argument of perigee: 99.3936°
revolutions per day: 14.36795802
mean anomaly at epoch: 260.9476°
orbit number at epoch: 56483

The dashed part of the orbit path shows where the satellite is in the earth's shadow,  

DLR